Regional Weather Roundup
Issued by NWS Lake Charles, LA

Home | Current Version | Previous Version | Text Only | Print | Product List | Glossary On
Versions: 1 2 3 4 5 6 7 8 9 10 11 12 13 14 15 16 17 18 19 20 21 22 23 24 25 26 27 28 29 30 31 32 33 34 35 36 37 38 39 40 41 42 43 44 45 46 47 48 49 50
603
ASUS44 KLCH 191810
RWRLCH
REGIONAL WEATHER ROUNDUP
NATIONAL WEATHER SERVICE LAKE CHARLES LA
100 PM CDT THU APR 19 2018

Note: "fair" indicates few or no clouds below 12,000 feet with no
significant weather and/or obstructions to visibility.


ACROSS SOUTHEAST TEXAS

CITY           SKY/WX    TMP DP  RH WIND       PRES   REMARKS
BEAUMONT       FAIR      73  41  31 N14       30.24F
BEAUMONT CITY  FAIR      72  38  29 N13G18    30.26S
ORANGE         FAIR      71  44  37 N8G17     30.26S
JASPER         FAIR      69  40  34 NW10      30.30F
$$

ACROSS CENTRAL LOUISIANA

CITY           SKY/WX    TMP DP  RH WIND       PRES   REMARKS
LEESVILLE      FAIR      66  40  37 N8G16     30.25F
FULLERTON      FAIR      68  43  40 VRB5      30.23F
ALEXANDRIA INT FAIR      68  40  35 N10G16    30.24F
ESLER FIELD    FAIR      67  38  34 VRB5G17   30.26F
DERIDDER       FAIR      69  39  34 N12       30.28S
OAKDALE        FAIR      69  45  41 N9G16     30.24F
OPELOUSAS      FAIR      68  41  37 N14G21    30.23F
$$

ACROSS SOUTHWEST AND SOUTH CENTRAL LOUISIANA

CITY           SKY/WX    TMP DP  RH WIND       PRES   REMARKS
SULPHUR        FAIR      72  41  32 N9        30.24F
LAKE CHARLES   FAIR      72  42  34 N7G20     30.23F
CHENNAULT INT  SUNNY     70  45  40 N12G20    30.23F
CAMERON PHI    CLEAR     70  45  40 N9G15     30.23F
DEQUINCY       FAIR      68  41  37 N9        30.25F
JENNINGS       FAIR      69  46  43 NE10G16   30.23F
LAFAYETTE      FAIR      73  47  39 N12G21    30.21F
NEW IBERIA     FAIR      75  44  33 N10       30.21F
ABBEVILLE      NOT AVBL
PATTERSON      FAIR      73  49  42 N9        30.20F
SALT POINT       N/A    N/A N/A N/A N8        30.17F
$$

SELECTED SITES ACROSS THE REGION

CITY           SKY/WX    TMP DP  RH WIND       PRES   REMARKS
HOUSTON BUSH   FAIR      75  42  30 NE14G20   30.27F
HOUSTON HOBBY  FAIR      74  38  27 N16       30.26S
GALVESTON      FAIR      73  47  39 N16       30.26F
COLLEGE STAT   SUNNY     73  37  27 N13G21    30.31S
CONROE         MOSUNNY   73  37  27 N10       30.29F
HUNTSVILLE     MOSUNNY   71  35  26 N10G20    30.30F
LUFKIN         SUNNY     69  39  33 N9        30.30F
SHREVEPORT     FAIR      66  36  32 N13G22    30.30F
MONROE         FAIR      64  39  39 N9G22     30.31F
NATCHEZ MS     FAIR      63  41  44 N13G18    30.27F
BATON ROUGE    FAIR      72  44  36 N9        30.20F
N.O. INTL ARPT FAIR      74  54  49 N9G16     30.18F
SLIDELL        FAIR      75  50  41 VRB6      30.16F
$$

MARINE REPORTS

STATION/POSITION TIME  SKY/WX   TEMP    WIND        PRES    VSBY
                                AIR SEA DIR/SP/G
                 (UTC)          (F)     (DEG/KT/KT) (MB)    (MI)
BUOY 30 S HIGH I 1650            66 70   30/ 14/ 17 1024.4
WVE H/P(F/S)=  3/ 5

SEA RIM ST PARK  1800            69      20/  9/ 11 1024.4F
PORT ARTHUR      1748            68 68   20/  5/ 10 1024.4F
SABINE PASS N    1748            67 71  360/ 11/ 16 1025.7F
TEXAS POINT      NOT AVBL
CALCASIEU PASS   1748            67 71   10/  9/ 14 1022.8F
LK CHARLES BEACH 1748            68 69              1023.3F
MARSH ISLAND     1700            67                   N/A
FRESH WATER LOCK 1748            72 71              1022.8F
AMERADA PASS     1748            71 67  340/  4/  8 1022.3F
$$




USA.gov is the U.S. government's official web portal to all federal, state and local government web resources and services.